Location: Austin
(30.3000°N, 97.7500°W)
Time: 02:59:32
(UTC-05:00)

Intelsat 5-1 Rocket - Pass Details

Date: 01 October 2024
Orbit: 307 x 7047 km, 23.9° (Epoch: 06 October)

Event Time Altitude Azimuth Distance (km) Brightness Sun altitude
Rises 20:48:48 0° 254° (WSW) 2,065 5.9 -20.9°
Reaches altitude 10° 20:51:11 10° 225° (SW) 1,173 4.0 -21.4°
Enters shadow 20:51:38 12° 215° (SW) 1,072 3.6 -21.5°
